TimeEST,TemperatureF,Dew PointF,Humidity,Sea Level PressureIn,VisibilityMPH,Wind Direction,Wind SpeedMPH,Gust SpeedMPH,PrecipitationIn,Events,Conditions,WindDirDegrees,DateUTC
12:53 AM,50.0,41.0,71,30.27,10.0,Calm,Calm,-,N/A,,Mostly Cloudy,0,2013-01-06 05:53:00
1:53 AM,50.0,41.0,71,30.24,9.0,North,3.5,-,N/A,,Overcast,360,2013-01-06 06:53:00
2:53 AM,48.9,39.9,71,30.22,10.0,Calm,Calm,-,N/A,,Overcast,0,2013-01-06 07:53:00
3:53 AM,48.9,42.1,77,30.22,9.0,Calm,Calm,-,0.00,Rain,Light Rain,0,2013-01-06 08:53:00
4:53 AM,48.9,43.0,80,30.20,10.0,Calm,Calm,-,0.00,,Overcast,0,2013-01-06 09:53:00
5:53 AM,50.0,43.0,77,30.20,9.0,NNW,3.5,-,N/A,,Overcast,340,2013-01-06 10:53:00
6:53 AM,50.0,43.0,77,30.22,10.0,NNW,8.1,-,N/A,,Overcast,330,2013-01-06 11:53:00
7:53 AM,48.9,44.1,83,30.24,10.0,NNW,3.5,-,0.00,,Overcast,340,2013-01-06 12:53:00
8:53 AM,51.1,44.1,77,30.23,10.0,Calm,Calm,-,N/A,,Mostly Cloudy,0,2013-01-06 13:53:00
9:53 AM,53.1,43.0,69,30.24,10.0,Calm,Calm,-,N/A,,Overcast,0,2013-01-06 14:53:00
10:53 AM,53.1,41.0,64,30.23,10.0,North,3.5,-,N/A,,Overcast,350,2013-01-06 15:53:00
11:51 AM,51.8,42.8,71,30.23,1.8,NNW,5.8,-,0.03,Rain,Heavy Rain,340,2013-01-06 16:51:00
11:53 AM,50.0,43.0,77,30.23,1.5,North,3.5,-,0.03,Rain,Rain,10,2013-01-06 16:53:00
12:00 PM,50.0,44.6,82,30.23,3.0,Calm,Calm,-,0.00,Rain,Light Rain,0,2013-01-06 17:00:00
12:53 PM,51.1,41.0,68,30.20,10.0,NW,4.6,-,0.02,,Overcast,320,2013-01-06 17:53:00
1:53 PM,52.0,42.1,69,30.17,10.0,Calm,Calm,-,N/A,,Overcast,0,2013-01-06 18:53:00
2:53 PM,53.1,41.0,64,30.16,10.0,NNW,3.5,-,N/A,,Overcast,340,2013-01-06 19:53:00
3:53 PM,53.1,42.1,66,30.17,10.0,Calm,Calm,-,N/A,,Overcast,0,2013-01-06 20:53:00
4:53 PM,53.1,43.0,69,30.15,10.0,Calm,Calm,-,N/A,,Overcast,0,2013-01-06 21:53:00
5:53 PM,52.0,45.0,77,30.17,10.0,Calm,Calm,-,N/A,,Overcast,0,2013-01-06 22:53:00
6:53 PM,51.1,45.0,80,30.17,10.0,SW,3.5,-,N/A,,Overcast,220,2013-01-06 23:53:00
7:53 PM,50.0,46.9,89,30.18,10.0,Calm,Calm,-,0.00,,Scattered Clouds,0,2013-01-07 00:53:00
8:53 PM,50.0,46.0,86,30.19,10.0,Calm,Calm,-,N/A,,Scattered Clouds,0,2013-01-07 01:53:00
9:53 PM,48.9,45.0,86,30.22,10.0,West,3.5,-,N/A,,Clear,280,2013-01-07 02:53:00
10:53 PM,48.0,44.1,86,30.22,10.0,Calm,Calm,-,N/A,,Clear,0,2013-01-07 03:53:00
11:53 PM,48.0,44.1,86,30.22,10.0,NW,3.5,-,N/A,,Clear,320,2013-01-07 04:53:00